Flag for Greece Weather past 2 weeks in Athens, Greece

Now
86 °F

Passing clouds.


Feels Like: 84 °F
Forecast: 73 / 86 °F
Wind: 16 mph from North

Location: Elefsis Airport

Current Time: Aug 30, 2014 at 1:24:36 PM

Latest Report: Aug 30, 2014 at 12:50 PM


Visibility: N/A

Pressure: 29.98 "Hg

Humidity: 31%

Dew point: 52 °F

Location of AthensLocation

Historic Weather in Athens — Graph

°F

Athens temperature yesterday

Maximum temperature yesterday: 91 °F (at 1:20 PM)
Minimum temperature yesterday: 77 °F (at 11:50 PM)
Average temperature yesterday: 84 °F

Past Weeks' High & Low Weather Summary

 TemperatureHumidityPressure
High104 °F (Aug 24, 2:50 PM)74% (Aug 16, 2:20 AM)30.01 "Hg (Aug 16, 2:20 AM)
Low68 °F (Aug 21, 6:20 AM)8% (Aug 24, 3:20 PM)29.65 "Hg (Aug 17, 4:50 PM)
Average84 °F40%29.86 "Hg
* Reported Aug 15 12:50 PM — Aug 30 12:20 PM, Athens, Weather by CustomWeather, © 2014

Note: Actual official high and low records may vary slightly from our data, if they occured in-between our weather recording intervals... More about our weather records

Advertising

Athens weather history for previous 24 hours

 ConditionsComfort  
Time TempWeatherWind HumidityBarometerVisibility
12:20 PM
Aug 30
86 °FSunny.17 mph29%29.98 "Hg10 mi
11:50 AM84 °FSunny.18 mph31%29.98 "Hg10 mi
11:20 AM84 °FSunny.20 mph31%29.98 "Hg10 mi
10:50 AM84 °FSunny.12 mph31%29.98 "Hg10 mi
10:20 AM82 °FSunny.13 mph35%29.98 "Hg10 mi
9:50 AM81 °FSunny.15 mph39%29.98 "Hg10 mi
9:20 AM81 °FSunny.14 mph37%29.98 "Hg10 mi
8:50 AM79 °FSunny.16 mph39%29.98 "Hg10 mi
8:20 AM77 °FSunny.15 mph42%29.98 "Hg10 mi
7:50 AM77 °FClear.14 mph44%29.98 "Hg10 mi
7:20 AM75 °FClear.10 mph47%29.98 "Hg10 mi
6:50 AM75 °FClear.12 mph54%29.98 "Hg10 mi
6:20 AM75 °FClear.14 mph54%29.98 "Hg10 mi
5:50 AM75 °FClear.12 mph54%29.98 "Hg10 mi
4:20 AM75 °FClear.14 mph54%29.98 "Hg10 mi
3:50 AM75 °FClear.14 mph54%29.98 "Hg10 mi
2:50 AM77 °FClear.14 mph51%29.98 "Hg10 mi
1:50 AM75 °FClear.7 mph54%29.98 "Hg10 mi
1:20 AM77 °FClear.8 mph51%29.98 "Hg10 mi
12:50 AM77 °FClear.8 mph47%29.98 "Hg10 mi
12:20 AM77 °FClear.8 mph47%29.98 "Hg10 mi
11:50 PM
Aug 29
77 °FClear.8 mph47%29.98 "Hg10 mi
9:50 PM79 °FClear.6 mph45%29.98 "Hg10 mi
9:20 PM79 °FClear.7 mph45%29.98 "Hg10 mi
8:50 PM81 °FSunny.5 mph42%29.95 "Hg10 mi
8:20 PM81 °FSunny.7 mph42%29.95 "Hg10 mi
7:50 PM82 °FSunny.12 mph37%29.95 "Hg10 mi
7:20 PM84 °FSunny.12 mph35%29.95 "Hg10 mi
6:50 PM84 °FSunny.13 mph37%29.95 "Hg10 mi
6:20 PM86 °FPassing clouds.16 mph33%29.92 "HgN/A
5:50 PM88 °FPassing clouds.17 mph33%29.92 "HgN/A
5:20 PM88 °FPassing clouds.15 mph33%29.92 "HgN/A
4:50 PM90 °FPassing clouds.16 mph31%29.92 "HgN/A
4:20 PM90 °FPassing clouds.15 mph31%29.92 "HgN/A
3:50 PM90 °FPassing clouds.13 mph31%29.92 "HgN/A
3:20 PM90 °FPassing clouds.15 mph31%29.92 "HgN/A
2:50 PM91 °FPassing clouds.15 mph30%29.92 "HgN/A
1:50 PM91 °FPassing clouds.18 mph30%29.92 "HgN/A
1:20 PM91 °FPassing clouds.24 mph32%29.92 "HgN/A
Weather by CustomWeather, © 2014

See weather overviewHow to use our weather pages